STARLINK-1929, 46788

Orbit data source: Space-Track

STARLINK-1929, 46788 is a payload satellite owned by SpaceX/Seattle (US) in LEO that was launched on Sat, 24 Oct 2020 UTC via an FALCON 9 launch vehicle from the Air Force Eastern Test Range (AFETR). Payloads include a variety of satellites, spacecraft, and rockets equipped with specific instruments for various scientific and technological missions. These include communications satellites like Starlink; space stations such as the ISS; scientific satellites like the Hubble; Earth observation satellites from companies like Planet Labs, Umbra, and HawkEye 360; GPS; miniature CubeSats for education and research; and military/defense satellites.

Loading next visibility...
STARLINK-1929 details
Identifier
46788, 2020-074BB
Orbit
LEO
Last TLE update5 hours ago
Origin
Flag of USSpaceX/Seattle (US)
ManufacturerSpaceX/Seattle
MissionPartially operational Commercial Communications
Bus & MotorSTARLINK, Unknown motor
Mass260 kg wet, ~248 kg dry
Launch date (UTC)
2020-10-24 (4 years ago)
Launch vehicle
FALCON 9
Launch site
Air Force Eastern Test Range (AFETR)
Object type
Payload
Rocket body
Debris
Shape & HBRBox + 1 Pan, 8.86 m
Radar Cross Section13.562 m², Large (>1 m²)

Expand to show TLE details & history

TLE from 5 hours ago
0 STARLINK-1929
1 46788U 20074BB  24337.25001157  .00828720  00000-0  18419-1 0  9997
2 46788  53.0516 204.0673 0001012  92.0964  86.3980 15.40800517227120
Epoch: 2024-12-02T06:00Z
Definitive object data (Epoch: 2024-12-02T06:00:00.999Z)
Latitude1.12067°
Longitude-138.3518°
Altitude444.456 km
Speed7.647 km/s
True Right ascension01h 32m 54s
True Declination1° 06' 49"
Sunlit
Object was in full shadow at TLE epoch
Visualization TLE readout
Latitude1.62842°
Longitude42.62705°
Altitude443.41 km
Speed7.647 km/s
Apparent Right ascension16h 28m 35s
Apparent Declination-30° 38' 33"
Sunlit
Object is in daylight
Visualization observer readout
Local Sidereal Time09:14:34
Azimuth104.808° ESE
Elevation-32.446°
Doppler factor1
Orbital elements
Apogee altitude444.711 km
Perigee altitude443.33 km
Semi-major axis6,822.158 km
Eccentricity0.0001012
Inclination53.0516°
RAAN204.0673°
Arg. of periapsis92.0964°
True anomaly86.40957°
Mean anomaly86.398°
Eccentric anomaly86.40379°
Mean motion3.85177 °/min
BSTAR0.018419
Orbital period93.46 mins
Loading maneuver chart data...

STARLINK-1929 Visibility forecast

Observer location: undefined°, undefined

Span
Click to sort rows by Start time (UTC) header in descending order
Start Az.
Max El. time (UTC)
Max El. Az.
Max El.
End time (UTC)
End Az.
6 mins2024-12-02 17:50:50.452Z213.007° SW2024-12-02 17:53:50.452Z136.086° SSE39.252°2024-12-02 17:56:50.452Z59.581° ENE
4 mins2024-12-02 19:29:50.452Z300.642° NW2024-12-02 19:30:50.452Z323.675° NNW20.058°2024-12-02 19:33:50.452Z25.297° NE
5 mins2024-12-03 00:23:50.452Z331.181° NNW2024-12-03 00:25:50.452Z40.568° NE35.305°2024-12-03 00:28:50.452Z108.411° ESE
|